Retour au catalogue

HAWK-5B

ActifMilitairePO
NORAD 52756·PAYLOAD·🇺🇸 United States

Lancé May 25, 2022 depuis Cape Canaveral Space Force Station

Loading…

Prochains Passages (prochaines 24 heures)

TLE

FraisSource: Space-Track

Époque: Sep 14, 2026, 10:08 UTC

1 52756U 22057AA  26257.42281464  .00015002  00000-0  23138-3 0  9992
2 52756  97.6697  61.4631 0005549  97.4151 262.7732 15.54246456240199

Suivez HAWK-5B en temps réel avec AllMySat

Download on the App Store